Wind_Speed
90 93 95 96 98 103 105 107 112 115 116 121 125 118 119 118 105 102 100 101 100 103 102 106 104 106 86 82 76 73 71 73 74 77 80 85 78 82 85 74 68 69 65 63
85 92 94 93 95 98 101 106 108 110 115 119 120 118 120 126 125 124 123 116 105 105 102 102 100 97 92 89 85 81 82 87 91 86 86 90 92 84 75 67 62 58 57 52
69 85 93 94 96 97 98 100 105 108 112 113 117 116 116 122 126 126 127 130 129 121 118 105 107 111 109 105 92 87 87 93 95 92 95 88 84 85 76 65 60 52 62 72
61 70 81 92 98 99 100 101 103 105 107 112 115 109 114 116 122 125 127 127 127 127 140 125 124 125 125 118 115 112 112 95 87 84 85 87 83 78 76 77 77 76 86 78
61 64 69 80 91 98 102 104 104 105 106 109 111 115 104 116 117 120 123 125 128 127 129 128 128 132 131 130 123 117 116 112 107 99 94 89 84 86 87 95 89 88 83 82
66 68 69 70 74 80 89 98 105 108 109 108 110 115 103 110 115 118 121 124 123 123 123 127 128 126 126 128 127 125 118 112 107 105 107 101 92 97 87 84 86 82 77 77
63 66 70 73 74 76 79 85 90 97 107 111 113 118 106 110 116 117 122 123 121 120 119 119 120 119 119 120 120 117 112 108 110 102 106 99 92 91 87 85 80 77 74 75
63 66 68 70 72 75 81 86 88 88 93 95 101 106 105 110 115 123 123 121 119 117 117 118 118 118 117 117 115 117 110 100 97 93 91 90 88 85 79 76 72 70 68 69
66 67 69 70 72 74 80 83 87 89 92 92 91 93 92 97 104 110 116 117 119 120 120 118 116 116 116 114 112 111 110 102 98 94 91 88 87 82 79 72 68 67 67 66
69 69 74 73 72 75 76 80 82 86 84 84 82 85 87 94 98 101 103 104 106 106 106 108 111 113 113 112 110 108 108 102 98 91 87 84 83 79 73 68 62 63 64 60
60 65 76 75 74 78 78 79 79 82 81 78 75 77 84 88 89 91 94 98 99 100 101 99 98 101 99 99 103 103 100 98 95 92 88 83 80 75 68 62 59 61 59 56
43 49 59 62 62 69 73 72 70 72 75 74 72 68 83 84 86 87 90 90 90 92 94 92 95 97 95 94 91 87 87 87 86 83 81 78 76 70 62 60 55 57 55 51
25 28 33 38 44 52 57 60 62 64 66 68 60 60 69 70 74 76 79 82 84 80 84 85 90 89 89 88 84 80 76 74 71 69 70 69 66 61 58 56 55 51 50 46
21 24 29 38 41 46 50 50 50 52 55 54 49 48 56 56 55 57 64 67 68 67 66 66 71 74 75 78 78 69 66 63 65 61 60 55 54 52 51 51 48 45 42 42
25 28 30 34 38 37 37 39 40 37 43 45 37 35 44 44 47 49 51 50 48 50 51 54 53 55 60 66 64 63 60 60 52 50 51 48 44 43 44 42 39 38 40 37
30 28 28 34 32 27 26 27 29 27 29 33 32 32 35 35 37 38 40 37 39 39 40 42 41 42 53 58 57 62 58 33 32 33 37 38 36 36 35 35 36 37 35 32
31 26 25 36 21 26 26 23 21 17 19 21 21 25 26 26 28 30 31 29 30 32 39 43 47 49 51 48 45 45 39 32 30 26 25 27 27 27 28 32 33 32 30 28
28 26 22 32 17 20 23 21 15 10 12 12 12 16 16 18 19 25 24 22 24 34 37 35 40 41 38 40 41 51 50 44 33 22 19 17 19 22 29 28 30 28 27 27
24 21 24 26 22 22 21 17 10 6 10 9 10 10 16 18 23 21 17 22 31 37 42 44 45 46 46 49 60 56 52 48 37 23 16 11 14 25 18 22 26 28 34 34
20 17 21 24 22 23 19 13 8 6 7 7 10 12 18 23 25 25 22 26 35 45 51 56 64 60 64 68 64 57 49 45 39 26 20 19 23 24 22 24 28 33 34 32
14 16 17 19 19 16 16 15 6 3 3 5 10 13 19 24 28 29 34 40 48 55 68 72 72 78 75 71 59 52 49 40 36 25 21 24 21 19 18 24 25 27 30 32
12 15 14 18 20 20 15 13 6 4 5 6 10 17 25 30 36 39 55 61 72 77 79 81 74 73 67 61 57 55 52 41 34 27 28 24 20 13 13 20 26 29 30 29
13 14 18 18 15 16 13 12 8 8 8 12 16 25 33 42 50 61 68 92 94 93 91 84 82 77 68 62 66 50 40 43 40 28 34 34 26 15 12 18 23 26 28 30
12 16 18 19 16 15 13 13 9 9 3 14 21 30 44 52 69 75 101 93 97 96 91 84 83 74 69 62 53 44 53 45 47 45 42 33 24 18 17 18 21 27 25 26
12 15 19 16 14 12 11 14 14 11 3 17 21 37 58 70 90 103 102 102 98 94 96 90 80 72 70 64 45 52 53 63 49 37 28 24 24 25 19 20 25 24 24 22
14 17 13 11 11 10 11 14 12 10 10 22 33 53 67 86 112 110 104 97 95 96 97 87 76 74 72 66 58 48 50 51 38 28 23 20 22 23 24 24 23 20 20 17
Wind_Direction
225 227 229 229 230 231 232 231 233 235 236 235 233 236 236 239 232 235 234 236 241 241 242 250 252 256 253 253 255 259 257 258 260 263 266 271 276 278 280 281 285 288 295 298
229 230 230 231 232 233 234 234 234 235 236 238 238 236 237 237 240 240 243 240 241 242 243 250 250 245 250 250 251 253 256 261 264 266 270 269 277 279 280 279 279 287 296 287
233 234 233 233 234 235 236 236 236 236 236 237 238 237 240 240 242 245 244 244 246 240 245 242 245 246 245 251 253 258 261 264 265 269 271 273 274 272 272 276 274 279 283 289
236 235 236 236 236 236 238 238 238 239 238 239 239 236 240 242 242 244 246 246 246 248 247 247 248 253 254 251 254 252 256 257 259 259 264 269 267 266 264 271 277 277 282 283
244 243 241 239 240 240 240 241 241 242 242 241 243 241 236 243 242 244 245 248 248 247 248 249 253 255 257 256 257 256 255 254 254 259 260 263 263 265 263 270 275 279 280 285
244 245 247 247 244 244 245 246 246 245 244 245 246 247 240 243 248 246 246 246 246 248 249 250 251 253 255 258 257 256 258 255 255 255 261 267 269 267 270 271 273 276 279 281
247 246 245 246 246 247 247 246 245 246 247 247 246 247 246 244 245 248 248 248 248 248 248 249 250 251 252 256 259 258 258 257 257 260 258 262 264 269 271 272 273 275 277 276
247 246 248 248 248 250 251 249 249 247 248 248 249 250 249 248 248 248 249 250 251 251 250 249 249 250 252 252 254 258 259 257 257 258 258 259 261 262 265 268 268 270 272 274
250 252 251 249 250 251 252 254 253 252 250 250 251 251 246 249 249 249 250 251 252 251 251 250 250 250 251 251 252 255 256 257 257 257 258 259 259 261 263 263 265 268 268 270
251 252 255 255 255 255 255 256 257 259 257 256 253 252 255 252 249 250 249 249 249 250 250 250 251 250 249 250 250 251 254 255 255 254 254 255 257 258 260 260 262 265 268 271
253 253 257 258 259 261 260 260 261 261 262 260 256 256 254 252 252 251 249 247 246 247 247 247 247 249 248 248 248 249 250 253 254 254 254 253 254 255 255 258 259 262 266 269
254 255 258 261 263 265 268 268 267 266 265 263 258 252 253 252 252 251 251 250 248 245 244 242 242 242 244 244 244 245 246 248 251 253 252 253 252 253 254 253 254 257 262 268
256 253 260 264 265 266 266 267 268 268 267 265 262 257 255 253 252 252 252 251 250 247 244 241 241 239 239 240 242 241 241 242 244 245 247 248 249 249 248 248 249 255 257 264
262 269 281 283 279 277 273 271 269 270 268 265 259 255 252 251 249 246 248 249 250 249 247 242 240 238 239 239 239 236 237 235 235 235 239 240 240 240 241 242 244 250 254 258
271 277 287 291 289 285 280 274 270 262 262 266 265 250 250 243 241 241 240 242 242 240 238 236 232 228 228 232 228 226 224 230 233 231 230 231 232 232 234 236 240 245 248 254
269 278 291 296 290 284 290 279 278 279 267 261 261 252 243 244 241 240 239 232 229 225 222 219 213 208 214 220 218 214 215 218 223 215 218 218 221 223 226 228 231 238 244 249
269 279 294 295 286 283 286 284 282 274 271 262 249 244 239 234 233 234 229 222 221 214 209 205 196 205 200 200 199 198 190 172 179 186 192 198 207 212 216 221 228 233 239 246
267 279 295 298 293 290 282 280 275 282 275 260 247 237 228 222 216 211 208 211 202 201 192 184 186 181 181 175 165 151 151 142 143 130 148 166 185 204 206 222 230 234 225 229
267 282 299 300 290 286 288 280 274 283 252 242 235 214 214 197 194 181 177 189 179 175 162 165 161 155 157 149 150 148 146 137 133 124 114 143 191 204 229 232 221 218 230 240
269 282 298 298 287 277 284 270 255 253 264 241 214 197 207 186 174 154 161 161 175 157 149 146 142 140 142 140 141 139 131 123 128 130 133 157 196 223 236 226 225 228 236 250
274 285 299 288 286 288 281 254 247 253 241 230 207 187 188 180 156 146 146 157 158 145 139 139 138 138 140 141 134 125 124 120 126 149 163 182 208 221 230 230 233 236 243 257
277 287 300 294 286 293 280 268 242 217 217 217 199 184 181 158 140 139 147 145 137 135 138 134 132 144 135 133 131 130 123 134 140 166 178 205 213 253 234 234 235 238 249 254
279 302 306 299 301 301 296 262 247 255 217 196 192 183 171 148 140 150 145 136 134 134 138 138 134 134 135 133 131 130 134 149 144 170 206 217 229 248 246 246 243 243 247 260
286 297 312 298 294 298 279 273 264 263 227 183 187 182 160 151 142 147 139 141 140 137 138 137 139 139 135 133 128 136 147 165 173 189 205 218 241 252 244 251 250 248 260 265
303 309 309 304 299 297 289 273 269 258 217 171 174 171 158 152 141 146 145 143 143 143 142 140 137 139 147 143 148 160 170 173 183 193 203 229 244 251 250 251 259 261 261 269
316 322 314 317 308 305 286 273 262 236 180 167 173 168 166 154 146 148 145 146 144 145 143 140 137 144 147 152 157 161 173 182 186 195 218 234 251 252 255 254 254 259 269 276
Height
10583 10586 10591 10604 10611 10615 10623 10634 10643 10649 10655 10668 10678 10695 10694 10691 10698 10706 10712 10715 10721 10726 10727 10730 10741 10749 10755 10758 10764 10772 10781 10789 10795 10798 10801 10804 10804 10803 10806 10807 10805 10803 10800 10798
10567 10569 10578 10588 10595 10600 10609 10617 10623 10629 10639 10644 10653 10675 10675 10679 10679 10683 10690 10696 10699 10706 10714 10713 10721 10734 10737 10750 10753 10756 10765 10771 10778 10785 10789 10795 10792 10793 10796 10794 10793 10792 10791 10789
10553 10556 10563 10569 10577 10584 10589 10595 10601 10608 10615 10624 10631 10656 10656 10658 10662 10658 10663 10670 10674 10683 10693 10700 10701 10711 10725 10738 10744 10745 10751 10758 10761 10768 10775 10783 10785 10786 10787 10784 10783 10784 10785 10782
10539 10542 10547 10553 10556 10562 10567 10575 10580 10586 10595 10600 10605 10633 10634 10635 10637 10640 10638 10641 10657 10665 10672 10681 10684 10684 10694 10714 10721 10739 10741 10748 10752 10755 10761 10771 10775 10774 10773 10772 10773 10777 10778 10775
10527 10528 10533 10536 10541 10545 10550 10553 10559 10564 10572 10579 10585 10594 10637 10604 10613 10613 10619 10622 10628 10639 10650 10659 10664 10668 10668 10681 10700 10710 10725 10738 10745 10742 10752 10759 10763 10762 10763 10761 10764 10765 10766 10766
10508 10512 10516 10519 10523 10528 10531 10533 10538 10543 10548 10560 10558 10557 10605 10596 10589 10593 10593 10595 10603 10613 10627 10636 10644 10646 10652 10653 10672 10685 10701 10716 10728 10736 10737 10741 10746 10744 10750 10749 10753 10754 10756 10755
10492 10496 10497 10500 10505 10508 10510 10509 10513 10517 10522 10531 10534 10533 10574 10567 10554 10561 10558 10565 10582 10594 10604 10614 10619 10629 10637 10638 10636 10655 10674 10693 10704 10714 10722 10728 10728 10725 10732 10738 10739 10742 10744 10741
10477 10479 10481 10484 10488 10490 10490 10488 10490 10498 10497 10505 10508 10523 10536 10536 10539 10530 10535 10545 10556 10569 10579 10588 10597 10605 10613 10620 10626 10626 10645 10668 10680 10691 10702 10708 10707 10709 10719 10727 10730 10731 10730 10728
10460 10461 10462 10466 10469 10472 10468 10469 10468 10472 10475 10483 10490 10498 10512 10506 10500 10509 10516 10525 10531 10539 10544 10556 10569 10578 10586 10599 10609 10609 10622 10641 10656 10669 10678 10688 10687 10696 10706 10710 10718 10717 10716 10719
10447 10449 10441 10445 10452 10451 10452 10450 10450 10446 10454 10459 10472 10476 10476 10472 10475 10480 10490 10496 10499 10506 10517 10527 10536 10547 10560 10574 10584 10595 10599 10618 10631 10646 10658 10667 10670 10680 10691 10698 10705 10704 10704 10711
10431 10434 10423 10428 10434 10430 10431 10431 10433 10428 10430 10433 10445 10449 10440 10437 10445 10451 10457 10461 10471 10481 10491 10503 10514 10518 10533 10545 10558 10572 10585 10597 10610 10625 10637 10647 10652 10664 10676 10686 10690 10691 10695 10700
10415 10418 10413 10414 10418 10412 10408 10411 10413 10412 10407 10407 10411 10427 10409 10415 10421 10426 10427 10434 10443 10450 10461 10474 10481 10492 10507 10521 10538 10556 10570 10583 10594 10607 10618 10629 10636 10651 10663 10670 10675 10679 10686 10691
10406 10407 10405 10405 10403 10399 10395 10393 10391 10389 10385 10380 10390 10396 10388 10393 10395 10401 10405 10408 10412 10422 10430 10445 10453 10470 10486 10502 10519 10538 10554 10567 10578 10591 10602 10614 10625 10638 10647 10655 10662 10670 10677 10681
10397 10396 10394 10390 10388 10383 10378 10377 10375 10371 10365 10363 10366 10370 10367 10369 10374 10380 10381 10386 10393 10404 10412 10424 10437 10457 10476 10490 10506 10527 10540 10551 10561 10577 10590 10602 10613 10624 10634 10643 10653 10661 10667 10669
10387 10384 10383 10378 10371 10368 10364 10360 10359 10359 10354 10351 10352 10353 10349 10353 10355 10360 10363 10372 10382 10389 10397 10407 10423 10441 10458 10470 10491 10510 10523 10535 10553 10568 10581 10593 10603 10615 10625 10635 10645 10651 10654 10659
10376 10374 10371 10363 10360 10359 10351 10350 10347 10346 10345 10343 10342 10339 10338 10342 10346 10350 10355 10362 10370 10380 10389 10397 10412 10431 10441 10454 10477 10494 10511 10536 10551 10562 10574 10584 10595 10605 10615 10627 10636 10642 10646 10651
10364 10364 10361 10351 10353 10350 10343 10341 10339 10338 10334 10333 10333 10331 10331 10334 10338 10344 10349 10355 10364 10374 10380 10385 10395 10410 10429 10450 10473 10496 10518 10529 10543 10558 10570 10580 10591 10602 10611 10621 10628 10634 10639 10644
10355 10353 10352 10343 10344 10341 10336 10334 10332 10330 10326 10325 10325 10325 10327 10328 10333 10340 10347 10354 10362 10369 10375 10389 10400 10415 10436 10453 10471 10491 10509 10523 10542 10556 10566 10577 10587 10599 10607 10616 10622 10628 10633 10639
10346 10345 10341 10336 10334 10332 10329 10327 10325 10323 10321 10319 10321 10321 10321 10323 10327 10334 10344 10352 10359 10369 10379 10392 10407 10418 10439 10455 10472 10491 10504 10516 10534 10550 10561 10573 10587 10599 10605 10611 10617 10621 10625 10630
10340 10340 10335 10330 10327 10325 10324 10323 10318 10317 10316 10316 10317 10319 10319 10320 10325 10331 10339 10352 10364 10370 10380 10396 10406 10424 10445 10463 10478 10492 10505 10514 10525 10544 10561 10575 10587 10597 10602 10608 10613 10616 10620 10623
10334 10333 10330 10326 10322 10321 10320 10317 10313 10315 10314 10313 10315 10317 10319 10323 10327 10334 10340 10356 10366 10377 10388 10404 10415 10434 10449 10462 10478 10492 10504 10517 10529 10552 10568 10580 10591 10595 10597 10602 10607 10611 10614 10615
10328 10326 10323 10320 10317 10315 10314 10314 10310 10310 10310 10312 10313 10316 10317 10324 10333 10344 10355 10360 10370 10381 10394 10412 10430 10444 10455 10468 10479 10489 10501 10516 10530 10562 10573 10581 10586 10590 10594 10598 10603 10605 10608 10610
10322 10319 10316 10313 10312 10309 10309 10308 10305 10306 10306 10309 10311 10311 10318 10324 10331 10349 10363 10368 10375 10387 10399 10418 10438 10453 10463 10472 10481 10494 10511 10526 10549 10552 10572 10576 10581 10586 10590 10594 10598 10601 10603 10604
10317 10315 10313 10309 10308 10305 10304 10303 10300 10302 10303 10306 10308 10312 10318 10326 10329 10358 10365 10372 10383 10392 10408 10426 10442 10456 10469 10479 10491 10503 10518 10536 10550 10560 10569 10574 10578 10581 10585 10589 10592 10594 10597 10597
10315 10313 10309 10306 10304 10302 10300 10298 10297 10298 10301 10303 10305 10313 10320 10326 10329 10363 10366 10376 10386 10396 10413 10430 10444 10456 10469 10481 10495 10509 10517 10536 10548 10556 10563 10571 10575 10578 10581 10583 10587 10590 10591 10591
10312 10309 10306 10304 10302 10300 10297 10294 10294 10295 10298 10299 10302 10311 10318 10323 10326 10362 10370 10379 10389 10404 10421 10435 10447 10459 10471 10485 10497 10514 10525 10537 10545 10553 10562 10566 10570 10574 10577 10581 10583 10585 10585 10584